This is the latest recevied weather packets stored in our database for station/object K9ZOG. If no packets are shown the sender has not sent any weather packets the latest 10 day(s).
| Time | Temp. | Humidity | Pressure | Rain* | Wind** | Luminosity | Snow |
|---|---|---|---|---|---|---|---|
| 1777852153 | 14.44° C | 58% | 1006.3 hPa | 0 mm | - | 49 W/m² | - |
| 1777851852 | 14.44° C | 58% | 1006.3 hPa | 0 mm | - | 53 W/m² | - |
| 1777851553 | 14.44° C | 58% | 1006.4 hPa | 0 mm | - | 61 W/m² | - |
| 1777851253 | 15° C | 57% | 1006.6 hPa | 0 mm | - | 64 W/m² | - |
| 1777850952 | 15° C | 56% | 1006.7 hPa | 0 mm | - | 66 W/m² | - |
| 1777850653 | 15° C | 56% | 1006.8 hPa | 0 mm | - | 123 W/m² | - |
| 1777850352 | 15° C | 56% | 1006.7 hPa | 0 mm | - | 133 W/m² | - |
| 1777850052 | 15° C | 57% | 1006.9 hPa | 0 mm | - | 154 W/m² | - |
| 1777849752 | 14.44° C | 58% | 1007 hPa | 0 mm | - | 165 W/m² | - |
| 1777849452 | 14.44° C | 57% | 1007 hPa | 0 mm | - | 176 W/m² | - |
| 1777849152 | 14.44° C | 59% | 1007.1 hPa | 0 mm | - | 188 W/m² | - |
| 1777848852 | 13.89° C | 59% | 1007.1 hPa | 0 mm | - | 200 W/m² | - |
| 1777848552 | 13.89° C | 60% | 1007.3 hPa | 0 mm | - | 218 W/m² | - |
| 1777848252 | 13.33° C | 61% | 1007.3 hPa | 0 mm | - | 238 W/m² | - |
| 1777847952 | 13.33° C | 60% | 1007.4 hPa | 0 mm | - | 130 W/m² | - |
| 1777847652 | 13.89° C | 60% | 1007.5 hPa | 0 mm | - | 150 W/m² | - |
| 1777847353 | 13.89° C | 59% | 1007.7 hPa | 0 mm | - | 130 W/m² | - |
| 1777847055 | 13.89° C | 59% | 1007.8 hPa | 0 mm | - | 159 W/m² | - |
| 1777846753 | 13.33° C | 59% | 1007.9 hPa | 0 mm | - | 216 W/m² | - |
| 1777846452 | 13.33° C | 60% | 1007.9 hPa | 0 mm | - | 208 W/m² | - |
| 1777846153 | 13.33° C | 59% | 1007.9 hPa | 0 mm | - | 209 W/m² | - |
| 1777845853 | 13.33° C | 58% | 1008.1 hPa | 0 mm | - | 234 W/m² | - |
| 1777845552 | 13.89° C | 58% | 1008.2 hPa | 0 mm | - | 142 W/m² | - |
| 1777845252 | 13.89° C | 58% | 1008.2 hPa | 0 mm | - | 275 W/m² | - |
| 1777844953 | 13.89° C | 58% | 1008.3 hPa | 0 mm | - | 243 W/m² | - |
* Rain latest hour (hover to see other rain measurements)
** Current wind speed in m/s (hover to see current wind gust speed)